Time,TemperatureF,DewpointF,PressureIn,WindDirection,WindDirectionDegrees,WindSpeedMPH,WindSpeedGustMPH,Humidity,HourlyPrecipIn,Conditions,Clouds,dailyrainin,SoftwareType,DateUTC
2013-06-26 00:01:00,57.9,54.1,29.71,ENE,67,0.0,0.0,87,0.00,,,0.00,WUHU21623XXSP,2013-06-26 07:01:00,
2013-06-26 00:06:00,57.9,54.4,29.71,ENE,67,0.0,0.0,88,0.00,,,0.00,WUHU21623XXSP,2013-06-26 07:06:00,
2013-06-26 00:12:00,57.9,54.4,29.71,ENE,67,0.0,0.0,88,0.00,,,0.00,WUHU21623XXSP,2013-06-26 07:12:00,
2013-06-26 00:17:00,57.9,54.4,29.71,ESE,112,0.0,0.0,88,0.00,,,0.00,WUHU21623XXSP,2013-06-26 07:17:00,
2013-06-26 00:22:00,57.9,54.4,29.71,ESE,112,0.0,0.0,88,0.00,,,0.00,WUHU21623XXSP,2013-06-26 07:22:00,
2013-06-26 00:27:00,57.7,54.2,29.71,ESE,112,0.0,0.0,88,0.00,,,0.00,WUHU21623XXSP,2013-06-26 07:27:00,
2013-06-26 00:33:00,57.9,54.4,29.71,ESE,112,0.0,0.0,88,0.00,,,0.00,WUHU21623XXSP,2013-06-26 07:33:00,
2013-06-26 00:38:00,57.7,54.2,29.71,ESE,112,0.0,0.0,88,0.00,,,0.00,WUHU21623XXSP,2013-06-26 07:38:00,
2013-06-26 00:43:00,57.7,53.9,29.71,ESE,112,0.0,0.0,87,0.00,,,0.00,WUHU21623XXSP,2013-06-26 07:43:00,
2013-06-26 00:49:00,57.7,53.9,29.71,SE,135,0.0,0.0,87,0.00,,,0.00,WUHU21623XXSP,2013-06-26 07:49:00,
2013-06-26 00:54:00,57.7,53.9,29.71,SE,135,0.0,0.0,87,0.00,,,0.00,WUHU21623XXSP,2013-06-26 07:54:00,
2013-06-26 00:59:00,57.6,53.7,29.70,SE,135,0.0,0.0,87,0.00,,,0.00,WUHU21623XXSP,2013-06-26 07:59:00,
2013-06-26 01:05:00,57.6,53.7,29.70,SE,135,0.0,0.0,87,0.00,,,0.00,WUHU21623XXSP,2013-06-26 08:05:00,
2013-06-26 01:10:00,57.4,53.5,29.70,SE,135,0.0,0.0,87,0.00,,,0.00,WUHU21623XXSP,2013-06-26 08:10:00,
2013-06-26 01:15:00,57.0,53.5,29.70,SE,135,0.0,0.0,88,0.00,,,0.00,WUHU21623XXSP,2013-06-26 08:15:00,
2013-06-26 01:20:00,57.0,53.5,29.70,SE,135,0.0,0.0,88,0.00,,,0.00,WUHU21623XXSP,2013-06-26 08:20:00,
2013-06-26 01:26:00,57.0,53.5,29.70,SE,135,0.0,0.0,88,0.00,,,0.00,WUHU21623XXSP,2013-06-26 08:26:00,
2013-06-26 01:31:00,56.8,53.3,29.70,SE,135,0.0,0.0,88,0.00,,,0.00,WUHU21623XXSP,2013-06-26 08:31:00,
2013-06-26 01:36:00,56.8,53.3,29.70,SE,135,0.0,0.0,88,0.00,,,0.00,WUHU21623XXSP,2013-06-26 08:36:00,
2013-06-26 01:41:00,56.8,53.3,29.70,SE,135,0.0,0.0,88,0.00,,,0.00,WUHU21623XXSP,2013-06-26 08:41:00,
2013-06-26 01:47:00,56.8,53.3,29.70,SE,135,0.0,0.0,88,0.00,,,0.00,WUHU21623XXSP,2013-06-26 08:47:00,
2013-06-26 01:52:00,56.8,53.3,29.70,SE,135,0.0,0.0,88,0.00,,,0.00,WUHU21623XXSP,2013-06-26 08:52:00,
2013-06-26 01:57:00,56.8,53.3,29.70,SE,135,0.0,0.0,88,0.00,,,0.00,WUHU21623XXSP,2013-06-26 08:57:00,
2013-06-26 02:03:00,56.8,53.3,29.71,SE,135,0.0,0.0,88,0.00,,,0.00,WUHU21623XXSP,2013-06-26 09:03:00,
2013-06-26 02:08:00,56.8,53.3,29.71,ESE,112,0.0,0.0,88,0.00,,,0.00,WUHU21623XXSP,2013-06-26 09:08:00,
2013-06-26 02:13:00,56.8,53.6,29.71,East,90,0.0,0.0,89,0.00,,,0.00,WUHU21623XXSP,2013-06-26 09:13:00,
2013-06-26 02:18:00,56.8,53.6,29.71,East,90,0.0,0.0,89,0.00,,,0.00,WUHU21623XXSP,2013-06-26 09:18:00,
2013-06-26 02:24:00,56.8,53.6,29.71,ESE,112,0.0,0.0,89,0.00,,,0.00,WUHU21623XXSP,2013-06-26 09:24:00,
2013-06-26 02:29:00,56.8,53.6,29.71,ESE,112,0.0,0.0,89,0.00,,,0.00,WUHU21623XXSP,2013-06-26 09:29:00,
2013-06-26 02:34:00,56.8,53.6,29.71,ESE,112,0.0,0.0,89,0.00,,,0.00,WUHU21623XXSP,2013-06-26 09:34:00,
2013-06-26 02:40:00,56.8,53.6,29.71,East,90,0.0,0.0,89,0.00,,,0.00,WUHU21623XXSP,2013-06-26 09:40:00,
2013-06-26 02:45:00,56.8,53.6,29.72,East,90,0.0,0.0,89,0.00,,,0.00,WUHU21623XXSP,2013-06-26 09:45:00,
2013-06-26 02:50:00,57.0,53.8,29.71,ESE,112,0.0,0.0,89,0.00,,,0.00,WUHU21623XXSP,2013-06-26 09:50:00,
2013-06-26 02:55:00,57.0,53.8,29.72,ESE,112,0.0,0.0,89,0.00,,,0.00,WUHU21623XXSP,2013-06-26 09:55:00,
2013-06-26 03:01:00,57.0,53.8,29.72,ESE,112,0.0,0.0,89,0.00,,,0.00,WUHU21623XXSP,2013-06-26 10:01:00,
2013-06-26 03:06:00,57.0,53.8,29.71,SE,135,0.0,0.0,89,0.00,,,0.00,WUHU21623XXSP,2013-06-26 10:06:00,
2013-06-26 03:11:00,57.0,53.8,29.72,SE,135,0.0,0.0,89,0.00,,,0.00,WUHU21623XXSP,2013-06-26 10:11:00,
2013-06-26 03:16:00,57.2,54.0,29.71,SE,135,0.0,0.0,89,0.00,,,0.00,WUHU21623XXSP,2013-06-26 10:16:00,
2013-06-26 03:22:00,57.0,53.8,29.72,SE,135,0.0,0.0,89,0.00,,,0.00,WUHU21623XXSP,2013-06-26 10:22:00,
2013-06-26 03:27:00,57.2,54.0,29.72,SE,135,0.0,0.0,89,0.00,,,0.00,WUHU21623XXSP,2013-06-26 10:27:00,
2013-06-26 03:32:00,57.2,54.0,29.72,SE,135,0.0,0.0,89,0.00,,,0.00,WUHU21623XXSP,2013-06-26 10:32:00,
2013-06-26 03:38:00,57.4,54.2,29.72,SE,135,0.0,0.0,89,0.00,,,0.00,WUHU21623XXSP,2013-06-26 10:38:00,
2013-06-26 03:43:00,57.4,54.2,29.72,SSE,157,0.0,0.0,89,0.00,,,0.00,WUHU21623XXSP,2013-06-26 10:43:00,
2013-06-26 03:48:00,57.4,54.2,29.73,SSE,157,0.0,0.0,89,0.00,,,0.00,WUHU21623XXSP,2013-06-26 10:48:00,
2013-06-26 03:53:00,57.4,54.2,29.73,SSE,157,0.0,0.0,89,0.00,,,0.00,WUHU21623XXSP,2013-06-26 10:53:00,
2013-06-26 03:59:00,57.4,54.2,29.73,SSE,157,0.0,0.0,89,0.00,,,0.00,WUHU21623XXSP,2013-06-26 10:59:00,
2013-06-26 04:04:00,57.4,54.2,29.73,SSE,157,0.0,0.0,89,0.00,,,0.00,WUHU21623XXSP,2013-06-26 11:04:00,
2013-06-26 04:09:00,57.4,54.2,29.73,SSE,157,0.0,0.0,89,0.00,,,0.00,WUHU21623XXSP,2013-06-26 11:09:00,
2013-06-26 04:15:00,57.4,54.2,29.73,SSE,157,0.0,0.0,89,0.00,,,0.00,WUHU21623XXSP,2013-06-26 11:15:00,
2013-06-26 04:20:00,57.4,54.2,29.73,SSE,157,0.0,0.0,89,0.00,,,0.00,WUHU21623XXSP,2013-06-26 11:20:00,
2013-06-26 04:25:00,57.4,54.2,29.72,SE,135,0.0,0.0,89,0.00,,,0.00,WUHU21623XXSP,2013-06-26 11:25:00,
2013-06-26 04:30:00,57.4,54.2,29.72,SE,135,0.0,0.0,89,0.00,,,0.00,WUHU21623XXSP,2013-06-26 11:30:00,
2013-06-26 04:36:00,57.4,54.5,29.72,SE,135,0.0,0.0,90,0.00,,,0.00,WUHU21623XXSP,2013-06-26 11:36:00,
2013-06-26 04:41:00,57.4,54.5,29.72,SE,135,0.0,0.0,90,0.00,,,0.00,WUHU21623XXSP,2013-06-26 11:41:00,
2013-06-26 04:46:00,57.4,54.5,29.72,SE,135,0.0,0.0,90,0.00,,,0.00,WUHU21623XXSP,2013-06-26 11:46:00,
2013-06-26 04:51:00,57.4,54.5,29.72,SE,135,0.0,0.0,90,0.00,,,0.00,WUHU21623XXSP,2013-06-26 11:51:00,
2013-06-26 04:57:00,57.4,54.5,29.73,SE,135,0.0,0.0,90,0.00,,,0.00,WUHU21623XXSP,2013-06-26 11:57:00,
2013-06-26 05:02:00,57.4,54.5,29.73,SE,135,0.0,0.0,90,0.00,,,0.00,WUHU21623XXSP,2013-06-26 12:02:00,
2013-06-26 05:07:00,57.4,54.5,29.72,SE,135,0.0,0.0,90,0.00,,,0.00,WUHU21623XXSP,2013-06-26 12:07:00,
2013-06-26 05:13:00,57.4,54.5,29.73,SE,135,0.0,0.0,90,0.00,,,0.00,WUHU21623XXSP,2013-06-26 12:13:00,
2013-06-26 05:18:00,57.4,54.5,29.72,SE,135,0.0,0.0,90,0.00,,,0.00,WUHU21623XXSP,2013-06-26 12:18:00,
2013-06-26 05:23:00,57.4,54.5,29.72,SE,135,0.0,0.0,90,0.00,,,0.00,WUHU21623XXSP,2013-06-26 12:23:00,
2013-06-26 05:28:00,57.4,54.5,29.72,SE,135,0.0,0.0,90,0.00,,,0.00,WUHU21623XXSP,2013-06-26 12:28:00,
2013-06-26 05:34:00,57.4,54.5,29.72,SE,135,0.0,0.0,90,0.00,,,0.00,WUHU21623XXSP,2013-06-26 12:34:00,
2013-06-26 05:39:00,57.4,54.5,29.72,SE,135,0.0,0.0,90,0.00,,,0.00,WUHU21623XXSP,2013-06-26 12:39:00,
2013-06-26 05:44:00,57.4,54.5,29.72,SE,135,0.0,0.0,90,0.00,,,0.00,WUHU21623XXSP,2013-06-26 12:44:00,
2013-06-26 05:50:00,57.4,54.5,29.73,SE,135,0.0,0.0,90,0.00,,,0.00,WUHU21623XXSP,2013-06-26 12:50:00,
2013-06-26 05:55:00,57.4,54.5,29.73,SE,135,0.0,0.0,90,0.00,,,0.00,WUHU21623XXSP,2013-06-26 12:55:00,
2013-06-26 06:00:00,57.4,54.5,29.74,SE,135,0.0,0.0,90,0.00,,,0.00,WUHU21623XXSP,2013-06-26 13:00:00,
2013-06-26 06:05:00,57.4,54.5,29.73,SE,135,0.0,0.0,90,0.00,,,0.00,WUHU21623XXSP,2013-06-26 13:05:00,
2013-06-26 06:11:00,57.4,54.5,29.73,SE,135,0.0,0.0,90,0.00,,,0.00,WUHU21623XXSP,2013-06-26 13:11:00,
2013-06-26 06:16:00,57.4,54.5,29.74,SE,135,0.0,0.0,90,0.00,,,0.00,WUHU21623XXSP,2013-06-26 13:16:00,
2013-06-26 06:21:00,57.4,54.5,29.74,SE,135,0.0,0.0,90,0.00,,,0.00,WUHU21623XXSP,2013-06-26 13:21:00,
2013-06-26 06:27:00,57.4,54.5,29.74,SE,135,0.0,0.0,90,0.00,,,0.00,WUHU21623XXSP,2013-06-26 13:27:00,
2013-06-26 06:32:00,57.4,54.5,29.73,SE,135,0.0,0.0,90,0.00,,,0.00,WUHU21623XXSP,2013-06-26 13:32:00,
2013-06-26 06:37:00,57.4,54.5,29.74,ESE,112,0.0,0.0,90,0.00,,,0.00,WUHU21623XXSP,2013-06-26 13:37:00,
2013-06-26 06:43:00,57.6,54.7,29.74,ESE,112,0.0,0.0,90,0.00,,,0.00,WUHU21623XXSP,2013-06-26 13:43:00,
2013-06-26 06:48:00,57.6,55.0,29.74,ESE,112,0.0,0.0,91,0.00,,,0.00,WUHU21623XXSP,2013-06-26 13:48:00,
2013-06-26 06:53:00,57.6,55.0,29.74,ESE,112,0.0,0.0,91,0.00,,,0.00,WUHU21623XXSP,2013-06-26 13:53:00,
2013-06-26 06:58:00,57.6,55.0,29.75,ESE,112,0.0,0.0,91,0.00,,,0.00,WUHU21623XXSP,2013-06-26 13:58:00,
2013-06-26 07:04:00,57.6,55.0,29.75,ESE,112,0.0,0.0,91,0.00,,,0.00,WUHU21623XXSP,2013-06-26 14:04:00,
2013-06-26 07:09:00,57.7,55.1,29.74,ESE,112,0.0,0.0,91,0.00,,,0.00,WUHU21623XXSP,2013-06-26 14:09:00,
2013-06-26 07:14:00,57.9,55.3,29.74,ESE,112,0.0,0.0,91,0.00,,,0.00,WUHU21623XXSP,2013-06-26 14:14:00,
2013-06-26 07:19:00,57.9,55.3,29.74,ESE,112,0.0,0.0,91,0.00,,,0.00,WUHU21623XXSP,2013-06-26 14:19:00,
2013-06-26 07:25:00,57.9,55.3,29.74,ESE,112,0.0,0.0,91,0.00,,,0.00,WUHU21623XXSP,2013-06-26 14:25:00,
2013-06-26 07:30:00,57.9,55.3,29.74,ESE,112,0.0,0.0,91,0.00,,,0.00,WUHU21623XXSP,2013-06-26 14:30:00,
2013-06-26 07:35:00,58.3,55.7,29.74,East,90,0.0,0.0,91,0.00,,,0.00,WUHU21623XXSP,2013-06-26 14:35:00,
2013-06-26 07:41:00,58.3,55.7,29.74,ESE,112,0.0,0.0,91,0.00,,,0.00,WUHU21623XXSP,2013-06-26 14:41:00,
2013-06-26 07:46:00,58.6,56.0,29.74,ESE,112,0.0,0.0,91,0.00,,,0.00,WUHU21623XXSP,2013-06-26 14:46:00,
2013-06-26 07:51:00,58.8,56.2,29.75,ESE,112,0.0,0.0,91,0.00,,,0.00,WUHU21623XXSP,2013-06-26 14:51:00,
2013-06-26 07:56:00,58.8,56.2,29.75,SE,135,0.0,0.0,91,0.00,,,0.00,WUHU21623XXSP,2013-06-26 14:56:00,
2013-06-26 08:02:00,58.8,55.9,29.75,SE,135,0.0,0.0,90,0.00,,,0.00,WUHU21623XXSP,2013-06-26 15:02:00,
2013-06-26 08:07:00,58.8,55.9,29.75,SE,135,0.0,0.0,90,0.00,,,0.00,WUHU21623XXSP,2013-06-26 15:07:00,
2013-06-26 08:12:00,59.0,56.1,29.75,SE,135,0.0,0.0,90,0.00,,,0.00,WUHU21623XXSP,2013-06-26 15:12:00,
2013-06-26 08:18:00,59.2,56.3,29.75,SE,135,0.0,0.0,90,0.00,,,0.00,WUHU21623XXSP,2013-06-26 15:18:00,
2013-06-26 08:23:00,59.2,56.3,29.76,SE,135,0.0,0.0,90,0.00,,,0.00,WUHU21623XXSP,2013-06-26 15:23:00,
2013-06-26 08:28:00,59.2,56.3,29.76,SE,135,0.0,0.0,90,0.00,,,0.00,WUHU21623XXSP,2013-06-26 15:28:00,
2013-06-26 08:33:00,59.5,56.7,29.76,ENE,67,0.0,0.0,90,0.00,,,0.00,WUHU21623XXSP,2013-06-26 15:33:00,
2013-06-26 08:39:00,59.7,56.8,29.76,SE,135,0.0,0.0,90,0.00,,,0.00,WUHU21623XXSP,2013-06-26 15:39:00,
2013-06-26 08:44:00,60.3,57.4,29.76,SSE,157,0.0,0.0,90,0.00,,,0.00,WUHU21623XXSP,2013-06-26 15:44:00,
2013-06-26 08:49:00,60.6,57.7,29.76,SSE,157,0.0,0.0,90,0.00,,,0.00,WUHU21623XXSP,2013-06-26 15:49:00,
2013-06-26 08:55:00,60.6,57.4,29.77,SE,135,0.0,0.0,89,0.00,,,0.00,WUHU21623XXSP,2013-06-26 15:55:00,
2013-06-26 09:00:00,60.6,57.4,29.77,SSE,157,0.0,0.0,89,0.00,,,0.00,WUHU21623XXSP,2013-06-26 16:00:00,
2013-06-26 09:05:00,60.6,57.1,29.77,East,90,0.0,0.0,88,0.00,,,0.00,WUHU21623XXSP,2013-06-26 16:05:00,
2013-06-26 09:10:00,60.6,57.1,29.77,SSE,157,0.0,0.0,88,0.00,,,0.00,WUHU21623XXSP,2013-06-26 16:10:00,
2013-06-26 09:16:00,60.6,57.1,29.77,SE,135,0.0,0.0,88,0.00,,,0.00,WUHU21623XXSP,2013-06-26 16:16:00,
2013-06-26 09:21:00,60.6,57.1,29.78,ENE,67,0.0,0.0,88,0.00,,,0.00,WUHU21623XXSP,2013-06-26 16:21:00,
2013-06-26 09:26:00,60.6,57.1,29.78,SSE,157,0.0,0.0,88,0.00,,,0.00,WUHU21623XXSP,2013-06-26 16:26:00,
2013-06-26 09:32:00,60.6,57.1,29.77,SE,135,0.0,0.0,88,0.00,,,0.00,WUHU21623XXSP,2013-06-26 16:32:00,
2013-06-26 09:37:00,60.6,57.1,29.78,East,90,0.0,0.0,88,0.00,,,0.00,WUHU21623XXSP,2013-06-26 16:37:00,
2013-06-26 09:42:00,61.0,57.8,29.78,SE,135,0.0,0.0,89,0.00,,,0.00,WUHU21623XXSP,2013-06-26 16:42:00,
2013-06-26 09:47:00,61.2,57.9,29.78,SE,135,0.0,0.0,89,0.00,,,0.00,WUHU21623XXSP,2013-06-26 16:47:00,
2013-06-26 09:53:00,61.3,57.8,29.79,SSE,157,0.0,0.0,88,0.00,,,0.00,WUHU21623XXSP,2013-06-26 16:53:00,
2013-06-26 09:58:00,61.3,57.8,29.79,SSE,157,0.0,0.0,88,0.00,,,0.00,WUHU21623XXSP,2013-06-26 16:58:00,
2013-06-26 10:03:00,61.2,57.6,29.79,SSE,157,0.0,0.0,88,0.00,,,0.00,WUHU21623XXSP,2013-06-26 17:03:00,
2013-06-26 10:09:00,61.3,57.8,29.79,SSE,157,0.0,0.0,88,0.00,,,0.00,WUHU21623XXSP,2013-06-26 17:09:00,
2013-06-26 10:14:00,61.5,58.0,29.79,SE,135,0.0,0.0,88,0.00,,,0.00,WUHU21623XXSP,2013-06-26 17:14:00,
2013-06-26 10:19:00,61.5,58.0,29.79,SE,135,0.0,0.0,88,0.00,,,0.00,WUHU21623XXSP,2013-06-26 17:19:00,
2013-06-26 10:24:00,61.9,58.3,29.79,SSE,157,0.0,0.0,88,0.00,,,0.00,WUHU21623XXSP,2013-06-26 17:24:00,
2013-06-26 10:30:00,62.2,58.7,29.79,SSE,157,0.0,0.0,88,0.00,,,0.00,WUHU21623XXSP,2013-06-26 17:30:00,
2013-06-26 10:35:00,62.4,58.9,29.79,SSE,157,0.0,0.0,88,0.00,,,0.00,WUHU21623XXSP,2013-06-26 17:35:00,
2013-06-26 10:40:00,62.8,59.2,29.79,SSE,157,0.0,0.0,88,0.00,,,0.00,WUHU21623XXSP,2013-06-26 17:40:00,
2013-06-26 10:45:00,63.1,59.6,29.79,SSE,157,0.0,0.0,88,0.00,,,0.00,WUHU21623XXSP,2013-06-26 17:45:00,
2013-06-26 10:51:00,63.5,59.9,29.79,SSE,157,0.0,0.0,88,0.00,,,0.00,WUHU21623XXSP,2013-06-26 17:51:00,
2013-06-26 10:56:00,63.7,60.1,29.80,SSE,157,0.0,0.0,88,0.00,,,0.00,WUHU21623XXSP,2013-06-26 17:56:00,
2013-06-26 11:01:00,64.0,60.5,29.80,SSE,157,0.0,0.0,88,0.00,,,0.00,WUHU21623XXSP,2013-06-26 18:01:00,
2013-06-26 11:07:00,64.8,61.2,29.80,SSE,157,0.0,0.0,88,0.00,,,0.00,WUHU21623XXSP,2013-06-26 18:07:00,
2013-06-26 11:12:00,66.0,61.7,29.80,SE,135,0.0,0.0,86,0.00,,,0.00,WUHU21623XXSP,2013-06-26 18:12:00,
2013-06-26 11:17:00,66.7,61.7,29.80,ESE,112,0.0,0.0,84,0.00,,,0.00,WUHU21623XXSP,2013-06-26 18:17:00,
2013-06-26 11:22:00,67.6,62.0,29.80,SE,135,0.0,0.0,82,0.00,,,0.00,WUHU21623XXSP,2013-06-26 18:22:00,
2013-06-26 11:28:00,67.8,62.2,29.81,SE,135,0.0,0.0,82,0.00,,,0.00,WUHU21623XXSP,2013-06-26 18:28:00,
2013-06-26 11:33:00,67.8,61.8,29.80,SE,135,0.0,0.0,81,0.00,,,0.00,WUHU21623XXSP,2013-06-26 18:33:00,
2013-06-26 11:38:00,67.8,61.8,29.81,SSE,157,0.0,0.0,81,0.00,,,0.00,WUHU21623XXSP,2013-06-26 18:38:00,
2013-06-26 11:43:00,67.8,61.5,29.80,SW,225,0.0,0.0,80,0.00,,,0.00,WUHU21623XXSP,2013-06-26 18:43:00,
2013-06-26 11:49:00,67.8,61.1,29.80,SE,135,0.0,0.0,79,0.00,,,0.00,WUHU21623XXSP,2013-06-26 18:49:00,
2013-06-26 11:54:00,67.8,61.5,29.80,SE,135,0.0,0.0,80,0.00,,,0.00,WUHU21623XXSP,2013-06-26 18:54:00,
2013-06-26 11:59:00,68.4,61.6,29.80,SW,225,0.0,0.0,79,0.00,,,0.00,WUHU21623XXSP,2013-06-26 18:59:00,
2013-06-26 12:05:00,68.4,61.3,29.80,SW,225,0.0,0.0,78,0.00,,,0.00,WUHU21623XXSP,2013-06-26 19:05:00,
2013-06-26 12:10:00,68.7,61.2,29.80,ESE,112,0.0,0.0,77,0.00,,,0.00,WUHU21623XXSP,2013-06-26 19:10:00,
2013-06-26 12:15:00,68.7,61.2,29.80,SW,225,0.0,0.0,77,0.00,,,0.00,WUHU21623XXSP,2013-06-26 19:15:00,
2013-06-26 12:20:00,68.7,60.8,29.80,SSE,157,0.0,0.0,76,0.00,,,0.00,WUHU21623XXSP,2013-06-26 19:20:00,
2013-06-26 12:26:00,68.5,60.7,29.80,SSW,202,0.0,0.0,76,0.00,,,0.00,WUHU21623XXSP,2013-06-26 19:26:00,
2013-06-26 12:31:00,68.4,60.5,29.81,SSE,157,0.0,0.0,76,0.00,,,0.00,WUHU21623XXSP,2013-06-26 19:31:00,
2013-06-26 12:36:00,68.5,60.7,29.81,South,180,0.0,0.0,76,0.00,,,0.00,WUHU21623XXSP,2013-06-26 19:36:00,
2013-06-26 12:42:00,69.4,61.1,29.81,SW,225,0.0,0.0,75,0.00,,,0.00,WUHU21623XXSP,2013-06-26 19:42:00,
2013-06-26 12:47:00,69.8,61.1,29.81,WSW,247,0.0,0.0,74,0.00,,,0.00,WUHU21623XXSP,2013-06-26 19:47:00,
2013-06-26 12:52:00,69.6,60.5,29.82,WSW,247,0.0,0.0,73,0.00,,,0.00,WUHU21623XXSP,2013-06-26 19:52:00,
2013-06-26 12:57:00,69.3,60.2,29.82,SW,225,0.0,0.0,73,0.00,,,0.00,WUHU21623XXSP,2013-06-26 19:57:00,
2013-06-26 13:03:00,69.1,60.0,29.81,WSW,247,0.0,0.0,73,0.00,,,0.00,WUHU21623XXSP,2013-06-26 20:03:00,
2013-06-26 13:08:00,69.1,60.4,29.82,WSW,247,0.0,0.0,74,0.00,,,0.00,WUHU21623XXSP,2013-06-26 20:08:00,
2013-06-26 13:13:00,69.6,61.3,29.83,SSE,157,0.0,0.0,75,0.00,,,0.00,WUHU21623XXSP,2013-06-26 20:13:00,
2013-06-26 13:18:00,70.7,61.2,29.83,SSW,202,0.0,0.0,72,0.00,,,0.00,WUHU21623XXSP,2013-06-26 20:18:00,
2013-06-26 13:24:00,71.2,61.7,29.83,WSW,247,0.0,0.0,72,0.00,,,0.00,WUHU21623XXSP,2013-06-26 20:24:00,
2013-06-26 13:29:00,71.8,61.9,29.83,WSW,247,0.0,0.0,71,0.00,,,0.00,WUHU21623XXSP,2013-06-26 20:29:00,
2013-06-26 13:34:00,72.0,61.3,29.83,SW,225,0.0,0.0,69,0.00,,,0.00,WUHU21623XXSP,2013-06-26 20:34:00,
2013-06-26 13:39:00,72.1,61.4,29.83,SW,225,0.0,0.0,69,0.00,,,0.00,WUHU21623XXSP,2013-06-26 20:39:00,
2013-06-26 13:45:00,71.8,60.2,29.83,WSW,247,0.0,0.0,67,0.00,,,0.00,WUHU21623XXSP,2013-06-26 20:45:00,
2013-06-26 13:50:00,71.4,60.3,29.83,WSW,247,0.0,0.0,68,0.00,,,0.00,WUHU21623XXSP,2013-06-26 20:50:00,
2013-06-26 13:55:00,71.4,60.3,29.83,SSW,202,0.0,0.0,68,0.00,,,0.00,WUHU21623XXSP,2013-06-26 20:55:00,
2013-06-26 14:01:00,72.0,60.8,29.83,WSW,247,0.0,0.0,68,0.00,,,0.00,WUHU21623XXSP,2013-06-26 21:01:00,
2013-06-26 14:06:00,72.0,60.4,29.84,SW,225,0.0,0.0,67,0.00,,,0.00,WUHU21623XXSP,2013-06-26 21:06:00,
2013-06-26 14:11:00,71.8,60.6,29.84,East,90,0.0,0.0,68,0.00,,,0.00,WUHU21623XXSP,2013-06-26 21:11:00,
2013-06-26 14:16:00,72.3,61.6,29.84,SE,135,0.0,0.0,69,0.00,,,0.00,WUHU21623XXSP,2013-06-26 21:16:00,
2013-06-26 14:22:00,72.7,61.1,29.84,West,270,0.0,0.0,67,0.00,,,0.00,WUHU21623XXSP,2013-06-26 21:22:00,
2013-06-26 14:27:00,73.2,61.6,29.84,WSW,247,0.0,0.0,67,0.00,,,0.00,WUHU21623XXSP,2013-06-26 21:27:00,
2013-06-26 14:32:00,73.4,61.8,29.84,WSW,247,0.0,0.0,67,0.00,,,0.00,WUHU21623XXSP,2013-06-26 21:32:00,
2013-06-26 14:38:00,73.4,60.9,29.85,SW,225,0.0,0.0,65,0.00,,,0.00,WUHU21623XXSP,2013-06-26 21:38:00,
2013-06-26 14:43:00,73.2,60.3,29.85,WSW,247,0.0,0.0,64,0.00,,,0.00,WUHU21623XXSP,2013-06-26 21:43:00,
2013-06-26 14:48:00,73.2,60.3,29.84,West,270,0.0,0.0,64,0.00,,,0.00,WUHU21623XXSP,2013-06-26 21:48:00,
2013-06-26 14:53:00,73.2,59.8,29.85,WSW,247,0.0,0.0,63,0.00,,,0.00,WUHU21623XXSP,2013-06-26 21:53:00,
2013-06-26 14:59:00,73.4,60.4,29.85,WSW,247,0.0,0.0,64,0.00,,,0.00,WUHU21623XXSP,2013-06-26 21:59:00,
2013-06-26 15:04:00,73.4,60.4,29.86,WSW,247,0.0,0.0,64,0.00,,,0.00,WUHU21623XXSP,2013-06-26 22:04:00,
2013-06-26 15:09:00,73.6,60.6,29.85,South,180,0.0,0.0,64,0.00,,,0.00,WUHU21623XXSP,2013-06-26 22:09:00,
2013-06-26 15:15:00,73.9,60.1,29.85,WSW,247,0.0,0.0,62,0.00,,,0.00,WUHU21623XXSP,2013-06-26 22:15:00,
2013-06-26 15:20:00,73.9,60.1,29.85,South,180,0.0,0.0,62,0.00,,,0.00,WUHU21623XXSP,2013-06-26 22:20:00,
2013-06-26 15:25:00,73.6,59.3,29.86,WSW,247,0.0,0.0,61,0.00,,,0.00,WUHU21623XXSP,2013-06-26 22:25:00,
2013-06-26 15:30:00,73.2,58.5,29.86,ESE,112,0.0,0.0,60,0.00,,,0.00,WUHU21623XXSP,2013-06-26 22:30:00,
2013-06-26 15:36:00,72.9,58.6,29.86,SW,225,0.0,0.0,61,0.00,,,0.00,WUHU21623XXSP,2013-06-26 22:36:00,
2013-06-26 15:41:00,72.5,58.3,29.86,SW,225,0.0,0.0,61,0.00,,,0.00,WUHU21623XXSP,2013-06-26 22:41:00,
2013-06-26 15:46:00,72.3,58.5,29.86,East,90,0.0,0.0,62,0.00,,,0.00,WUHU21623XXSP,2013-06-26 22:46:00,
2013-06-26 15:52:00,72.0,58.2,29.86,SW,225,0.0,0.0,62,0.00,,,0.00,WUHU21623XXSP,2013-06-26 22:52:00,
2013-06-26 15:57:00,71.8,58.0,29.87,WSW,247,0.0,0.0,62,0.00,,,0.00,WUHU21623XXSP,2013-06-26 22:57:00,
2013-06-26 16:02:00,71.4,57.7,29.87,SSE,157,0.0,0.0,62,0.00,,,0.00,WUHU21623XXSP,2013-06-26 23:02:00,
2013-06-26 16:07:00,71.4,58.6,29.88,West,270,0.0,0.0,64,0.00,,,0.00,WUHU21623XXSP,2013-06-26 23:07:00,
2013-06-26 16:13:00,71.2,58.8,29.88,WSW,247,0.0,0.0,65,0.00,,,0.00,WUHU21623XXSP,2013-06-26 23:13:00,
2013-06-26 16:18:00,71.2,59.3,29.88,SW,225,0.0,0.0,66,0.00,,,0.00,WUHU21623XXSP,2013-06-26 23:18:00,
2013-06-26 16:23:00,71.2,59.7,29.88,SW,225,0.0,0.0,67,0.00,,,0.00,WUHU21623XXSP,2013-06-26 23:23:00,
2013-06-26 16:29:00,71.4,59.9,29.88,SW,225,0.0,0.0,67,0.00,,,0.00,WUHU21623XXSP,2013-06-26 23:29:00,
2013-06-26 16:34:00,71.4,59.4,29.88,SW,225,0.0,0.0,66,0.00,,,0.00,WUHU21623XXSP,2013-06-26 23:34:00,
2013-06-26 16:39:00,71.2,59.7,29.88,SW,225,0.0,0.0,67,0.00,,,0.00,WUHU21623XXSP,2013-06-26 23:39:00,
2013-06-26 16:44:00,71.2,59.7,29.88,SSW,202,0.0,0.0,67,0.00,,,0.00,WUHU21623XXSP,2013-06-26 23:44:00,
2013-06-26 16:50:00,71.8,59.3,29.88,SW,225,0.0,0.0,65,0.00,,,0.00,WUHU21623XXSP,2013-06-26 23:50:00,
2013-06-26 16:55:00,71.4,59.0,29.88,WSW,247,0.0,0.0,65,0.00,,,0.00,WUHU21623XXSP,2013-06-26 23:55:00,
2013-06-26 17:00:00,71.8,59.3,29.88,WSW,247,0.0,0.0,65,0.00,,,0.00,WUHU21623XXSP,2013-06-27 00:00:00,
2013-06-26 17:06:00,71.8,58.9,29.88,WSW,247,0.0,0.0,64,0.00,,,0.00,WUHU21623XXSP,2013-06-27 00:06:00,
2013-06-26 17:11:00,71.8,59.3,29.89,SW,225,0.0,0.0,65,0.00,,,0.00,WUHU21623XXSP,2013-06-27 00:11:00,
2013-06-26 17:16:00,71.4,59.0,29.89,SSW,202,0.0,0.0,65,0.00,,,0.00,WUHU21623XXSP,2013-06-27 00:16:00,
2013-06-26 17:21:00,71.4,58.6,29.89,SE,135,0.0,0.0,64,0.00,,,0.00,WUHU21623XXSP,2013-06-27 00:21:00,
2013-06-26 17:27:00,71.2,58.4,29.90,South,180,0.0,0.0,64,0.00,,,0.00,WUHU21623XXSP,2013-06-27 00:27:00,
2013-06-26 17:32:00,71.2,58.8,29.90,South,180,0.0,0.0,65,0.00,,,0.00,WUHU21623XXSP,2013-06-27 00:32:00,
2013-06-26 17:37:00,71.2,58.4,29.90,West,270,0.0,0.0,64,0.00,,,0.00,WUHU21623XXSP,2013-06-27 00:37:00,
2013-06-26 17:43:00,71.4,58.6,29.90,SW,225,0.0,0.0,64,0.00,,,0.00,WUHU21623XXSP,2013-06-27 00:43:00,
2013-06-26 17:48:00,71.4,58.1,29.90,WSW,247,0.0,0.0,63,0.00,,,0.00,WUHU21623XXSP,2013-06-27 00:48:00,
2013-06-26 17:53:00,71.4,58.1,29.90,WSW,247,0.0,0.0,63,0.00,,,0.00,WUHU21623XXSP,2013-06-27 00:53:00,
2013-06-26 17:59:00,71.2,57.5,29.90,South,180,0.0,0.0,62,0.00,,,0.00,WUHU21623XXSP,2013-06-27 00:59:00,
2013-06-26 18:04:00,71.2,57.5,29.90,SW,225,0.0,0.0,62,0.00,,,0.00,WUHU21623XXSP,2013-06-27 01:04:00,
2013-06-26 18:09:00,70.9,57.2,29.90,WSW,247,0.0,0.0,62,0.00,,,0.00,WUHU21623XXSP,2013-06-27 01:09:00,
2013-06-26 18:14:00,70.5,56.9,29.90,WSW,247,0.0,0.0,62,0.00,,,0.00,WUHU21623XXSP,2013-06-27 01:14:00,
2013-06-26 18:20:00,70.3,56.7,29.90,South,180,0.0,0.0,62,0.00,,,0.00,WUHU21623XXSP,2013-06-27 01:20:00,
2013-06-26 18:25:00,70.3,56.7,29.90,SSE,157,0.0,0.0,62,0.00,,,0.00,WUHU21623XXSP,2013-06-27 01:25:00,
2013-06-26 18:30:00,70.0,56.4,29.91,SE,135,0.0,0.0,62,0.00,,,0.00,WUHU21623XXSP,2013-06-27 01:30:00,
2013-06-26 18:35:00,69.6,56.5,29.91,WSW,247,0.0,0.0,63,0.00,,,0.00,WUHU21623XXSP,2013-06-27 01:35:00,
2013-06-26 18:41:00,69.6,56.5,29.91,ENE,67,0.0,0.0,63,0.00,,,0.00,WUHU21623XXSP,2013-06-27 01:41:00,
2013-06-26 18:46:00,69.6,56.9,29.91,ESE,112,0.0,0.0,64,0.00,,,0.00,WUHU21623XXSP,2013-06-27 01:46:00,
2013-06-26 18:51:00,69.6,56.9,29.91,SSE,157,0.0,0.0,64,0.00,,,0.00,WUHU21623XXSP,2013-06-27 01:51:00,
2013-06-26 18:57:00,69.4,57.1,29.91,SSE,157,0.0,0.0,65,0.00,,,0.00,WUHU21623XXSP,2013-06-27 01:57:00,
2013-06-26 19:02:00,69.4,57.1,29.91,SSE,157,0.0,0.0,65,0.00,,,0.00,WUHU21623XXSP,2013-06-27 02:02:00,
2013-06-26 19:07:00,69.4,57.1,29.91,SSW,202,0.0,0.0,65,0.00,,,0.00,WUHU21623XXSP,2013-06-27 02:07:00,
2013-06-26 19:13:00,69.4,57.5,29.91,SSW,202,0.0,0.0,66,0.00,,,0.00,WUHU21623XXSP,2013-06-27 02:13:00,
2013-06-26 19:18:00,69.4,57.1,29.91,SSW,202,0.0,0.0,65,0.00,,,0.00,WUHU21623XXSP,2013-06-27 02:18:00,
2013-06-26 19:23:00,69.4,57.1,29.91,SW,225,0.0,0.0,65,0.00,,,0.00,WUHU21623XXSP,2013-06-27 02:23:00,
2013-06-26 19:28:00,69.4,57.1,29.92,SSE,157,0.0,0.0,65,0.00,,,0.00,WUHU21623XXSP,2013-06-27 02:28:00,
2013-06-26 19:34:00,69.3,57.4,29.92,South,180,0.0,0.0,66,0.00,,,0.00,WUHU21623XXSP,2013-06-27 02:34:00,
2013-06-26 19:39:00,69.1,56.8,29.91,South,180,0.0,0.0,65,0.00,,,0.00,WUHU21623XXSP,2013-06-27 02:39:00,
2013-06-26 19:44:00,69.1,57.2,29.91,South,180,0.0,0.0,66,0.00,,,0.00,WUHU21623XXSP,2013-06-27 02:44:00,
2013-06-26 19:49:00,68.9,57.0,29.91,South,180,0.0,0.0,66,0.00,,,0.00,WUHU21623XXSP,2013-06-27 02:49:00,
2013-06-26 19:55:00,68.9,57.0,29.91,South,180,0.0,0.0,66,0.00,,,0.00,WUHU21623XXSP,2013-06-27 02:55:00,
2013-06-26 20:00:00,68.7,56.9,29.92,South,180,0.0,0.0,66,0.00,,,0.00,WUHU21623XXSP,2013-06-27 03:00:00,
2013-06-26 20:05:00,68.5,57.1,29.92,South,180,0.0,0.0,67,0.00,,,0.00,WUHU21623XXSP,2013-06-27 03:05:00,
2013-06-26 20:10:00,68.4,56.9,29.92,South,180,0.0,0.0,67,0.00,,,0.00,WUHU21623XXSP,2013-06-27 03:10:00,
2013-06-26 20:16:00,68.2,57.2,29.92,South,180,0.0,0.0,68,0.00,,,0.00,WUHU21623XXSP,2013-06-27 03:16:00,
2013-06-26 20:21:00,67.8,56.9,29.92,South,180,0.0,0.0,68,0.00,,,0.00,WUHU21623XXSP,2013-06-27 03:21:00,
2013-06-26 20:26:00,67.6,56.7,29.92,South,180,0.0,0.0,68,0.00,,,0.00,WUHU21623XXSP,2013-06-27 03:26:00,
2013-06-26 20:32:00,67.6,57.1,29.92,South,180,0.0,0.0,69,0.00,,,0.00,WUHU21623XXSP,2013-06-27 03:32:00,
2013-06-26 20:37:00,67.1,56.6,29.93,South,180,0.0,0.0,69,0.00,,,0.00,WUHU21623XXSP,2013-06-27 03:37:00,
2013-06-26 20:42:00,66.9,56.4,29.93,South,180,0.0,0.0,69,0.00,,,0.00,WUHU21623XXSP,2013-06-27 03:42:00,
2013-06-26 20:47:00,66.7,56.7,29.93,South,180,0.0,0.0,70,0.00,,,0.00,WUHU21623XXSP,2013-06-27 03:47:00,
2013-06-26 20:53:00,66.7,57.0,29.93,South,180,0.0,0.0,71,0.00,,,0.00,WUHU21623XXSP,2013-06-27 03:53:00,
2013-06-26 20:58:00,66.4,56.7,29.92,South,180,0.0,0.0,71,0.00,,,0.00,WUHU21623XXSP,2013-06-27 03:58:00,
2013-06-26 21:03:00,66.2,56.5,29.92,South,180,0.0,0.0,71,0.00,,,0.00,WUHU21623XXSP,2013-06-27 04:03:00,
2013-06-26 21:09:00,66.0,56.3,29.93,South,180,0.0,0.0,71,0.00,,,0.00,WUHU21623XXSP,2013-06-27 04:09:00,
2013-06-26 21:14:00,66.0,56.3,29.93,South,180,0.0,0.0,71,0.00,,,0.00,WUHU21623XXSP,2013-06-27 04:14:00,
2013-06-26 21:19:00,66.0,56.3,29.93,South,180,0.0,0.0,71,0.00,,,0.00,WUHU21623XXSP,2013-06-27 04:19:00,
2013-06-26 21:24:00,65.8,56.5,29.93,South,180,0.0,0.0,72,0.00,,,0.00,WUHU21623XXSP,2013-06-27 04:24:00,
2013-06-26 21:30:00,65.7,56.4,29.93,South,180,0.0,0.0,72,0.00,,,0.00,WUHU21623XXSP,2013-06-27 04:30:00,
2013-06-26 21:35:00,65.5,56.2,29.94,South,180,0.0,0.0,72,0.00,,,0.00,WUHU21623XXSP,2013-06-27 04:35:00,
2013-06-26 21:40:00,65.3,56.0,29.94,South,180,0.0,0.0,72,0.00,,,0.00,WUHU21623XXSP,2013-06-27 04:40:00,
2013-06-26 21:46:00,65.1,56.2,29.93,South,180,0.0,0.0,73,0.00,,,0.00,WUHU21623XXSP,2013-06-27 04:46:00,
2013-06-26 21:51:00,65.1,56.2,29.93,South,180,0.0,0.0,73,0.00,,,0.00,WUHU21623XXSP,2013-06-27 04:51:00,
2013-06-26 21:56:00,64.9,56.1,29.94,South,180,0.0,0.0,73,0.00,,,0.00,WUHU21623XXSP,2013-06-27 04:56:00,
2013-06-26 22:01:00,64.8,55.9,29.93,South,180,0.0,0.0,73,0.00,,,0.00,WUHU21623XXSP,2013-06-27 05:01:00,
2013-06-26 22:07:00,64.6,55.7,29.94,South,180,0.0,0.0,73,0.00,,,0.00,WUHU21623XXSP,2013-06-27 05:07:00,
2013-06-26 22:12:00,64.6,55.7,29.94,South,180,0.0,0.0,73,0.00,,,0.00,WUHU21623XXSP,2013-06-27 05:12:00,
2013-06-26 22:17:00,64.2,55.8,29.94,South,180,0.0,0.0,74,0.00,,,0.00,WUHU21623XXSP,2013-06-27 05:17:00,
2013-06-26 22:22:00,64.2,55.8,29.94,South,180,0.0,0.0,74,0.00,,,0.00,WUHU21623XXSP,2013-06-27 05:22:00,
2013-06-26 22:28:00,64.0,55.6,29.94,South,180,0.0,0.0,74,0.00,,,0.00,WUHU21623XXSP,2013-06-27 05:28:00,
2013-06-26 22:33:00,63.9,55.4,29.94,South,180,0.0,0.0,74,0.00,,,0.00,WUHU21623XXSP,2013-06-27 05:33:00,
2013-06-26 22:38:00,63.7,55.6,29.94,South,180,0.0,0.0,75,0.00,,,0.00,WUHU21623XXSP,2013-06-27 05:38:00,
2013-06-26 22:44:00,63.5,55.4,29.94,South,180,0.0,0.0,75,0.00,,,0.00,WUHU21623XXSP,2013-06-27 05:44:00,
2013-06-26 22:49:00,63.5,55.4,29.94,South,180,0.0,0.0,75,0.00,,,0.00,WUHU21623XXSP,2013-06-27 05:49:00,
2013-06-26 22:54:00,63.3,55.2,29.94,South,180,0.0,0.0,75,0.00,,,0.00,WUHU21623XXSP,2013-06-27 05:54:00,
2013-06-26 23:00:00,63.3,55.2,29.94,South,180,0.0,0.0,75,0.00,,,0.00,WUHU21623XXSP,2013-06-27 06:00:00,
2013-06-26 23:05:00,63.1,55.0,29.93,South,180,0.0,0.0,75,0.00,,,0.00,WUHU21623XXSP,2013-06-27 06:05:00,
2013-06-26 23:10:00,63.1,55.4,29.94,South,180,0.0,0.0,76,0.00,,,0.00,WUHU21623XXSP,2013-06-27 06:10:00,
2013-06-26 23:15:00,63.1,55.4,29.94,South,180,0.0,0.0,76,0.00,,,0.00,WUHU21623XXSP,2013-06-27 06:15:00,
2013-06-26 23:21:00,63.1,55.4,29.94,South,180,0.0,0.0,76,0.00,,,0.00,WUHU21623XXSP,2013-06-27 06:21:00,
2013-06-26 23:26:00,63.0,55.6,29.94,South,180,0.0,0.0,77,0.00,,,0.00,WUHU21623XXSP,2013-06-27 06:26:00,
2013-06-26 23:31:00,63.0,55.6,29.94,South,180,0.0,0.0,77,0.00,,,0.00,WUHU21623XXSP,2013-06-27 06:31:00,
2013-06-26 23:36:00,62.8,55.4,29.95,South,180,0.0,0.0,77,0.00,,,0.00,WUHU21623XXSP,2013-06-27 06:36:00,
2013-06-26 23:42:00,62.6,55.2,29.94,South,180,0.0,0.0,77,0.00,,,0.00,WUHU21623XXSP,2013-06-27 06:42:00,
2013-06-26 23:47:00,62.6,55.2,29.95,South,180,0.0,0.0,77,0.00,,,0.00,WUHU21623XXSP,2013-06-27 06:47:00,
2013-06-26 23:52:00,62.6,55.2,29.95,South,180,0.0,0.0,77,0.00,,,0.00,WUHU21623XXSP,2013-06-27 06:52:00,
2013-06-26 23:57:00,62.4,55.4,29.95,South,180,0.0,0.0,78,0.00,,,0.00,WUHU21623XXSP,2013-06-27 06:57:00,